Monte Cimone, Italy

5:50 AM CEST on May 30, 2017 (GMT +0200)
Monte Cimone

Weather History for LIVC - July, 2013

Change the Weather History Date:

Wednesday, July 17, 2013

  Actual Average Record
Temperature  
Mean Temperature 56 °F -  
Max Temperature 59 °F 55 °F 71 °F (2005)
Min Temperature 53 °F 46 °F 41 °F (2000)
Degree Days  
Heating Degree Days 9    
Growing Degree Days 6 (Base 50)    
Moisture  
Dew Point 50 °F    
Average Humidity 81    
Maximum Humidity 94    
Minimum Humidity 65    
Precipitation  
Precipitation 0.02 in 0.08 in - ()
Sea Level Pressure  
Sea Level Pressure 30.41 in    
Wind  
Wind Speed 4 mph ()    
Max Wind Speed 18 mph    
Max Gust Speed -    
Visibility 7.0 miles    
Events Fog , Rain , Thunderstorm    
Averages and records for this station are not official NWS values.
T = Trace of Precipitation, MM = Missing Value Source: Averaged Metar Reports

Daily Weather History Graph

Daily Weather History Graph

Search for Another Location

Airport or City:

Trip Planner

Search our weather history database for the weather conditions in past years. The results will help you decide how hot, cold, wet, or windy it might be!

Date:

Astronomy

Jul. 17, 2013 Rise Set
Actual Time 5:49 AM CEST 8:56 PM CEST
Civil Twilight 5:14 AM CEST 9:31 PM CEST
Nautical Twilight 4:29 AM CEST 10:16 PM CEST
Astronomical Twilight 3:35 AM CEST 11:10 PM CEST
Moon 3:23 PM CEST (7/17) 12:50 AM CEST (7/17)
Length of Visible Light 16h 17m
Length of Day
15h 07m
Waxing Gibbous, 64% of the Moon is Illuminated
Jul 17
Waxing Gibbous
Jul 22
Full
Jul 29
Last Quarter
Aug 6
New
Aug 14
First Quarter

Hourly Weather History & Observations

Time (CEST) Temp. Dew Point Humidity Pressure Visibility Wind Dir Wind Speed Gust Speed Precip Events Conditions
12:00 AM 55 °F 49 °F 74%  in 19 mi Calm Calm - -  
12:55 AM 53.6 °F 48.2 °F 82% 30.45 in - Calm Calm - N/A   Clear
1:00 AM 54 °F 49 °F 77%  in 19 mi Calm Calm - -  
1:55 AM 53.6 °F 48.2 °F 82% 30.42 in - Calm Calm - N/A   Clear
2:00 AM 54 °F 47 °F 71%  in 19 mi Calm Calm - -  
2:55 AM 53.6 °F 48.2 °F 82% 30.42 in - Calm Calm - N/A   Clear
3:00 AM 54 °F 48 °F 75%  in 19 mi Calm Calm - -  
3:55 AM 53.6 °F 46.4 °F 77% 30.42 in - Calm Calm - N/A   Clear
4:00 AM 54 °F 47 °F 71%  in 19 mi Calm Calm - -  
4:55 AM 53.6 °F 46.4 °F 77% 30.42 in - Calm Calm - N/A   Clear
5:00 AM 54 °F 47 °F 70%  in 19 mi Calm Calm - -  
5:55 AM 53.6 °F 48.2 °F 82% 30.42 in - North 6.9 mph - N/A   Clear
6:00 AM 54 °F 48 °F 72%  in 9 mi North 13.4 mph - -  
6:55 AM 53.6 °F 46.4 °F 77% 30.42 in - NNE 6.9 mph - N/A   Clear
7:00 AM 54 °F 46 °F 65%  in 11 mi NNE 6.9 mph - -  
7:55 AM 53.6 °F 46.4 °F 77% 30.42 in - NNE 6.9 mph - N/A   Clear
8:00 AM 54 °F 46 °F 66%  in 16 mi NNE 13.4 mph - -  
8:55 AM 55.4 °F 48.2 °F 77% 30.42 in - NNE 9.2 mph - N/A   Clear
9:00 AM 55 °F 49 °F 74%  in 16 mi NNE 9.2 mph - -  
9:55 AM 57.2 °F 51.8 °F 82% 30.42 in 6.2 mi NNE 8.1 mph - N/A   Scattered Clouds
10:00 AM 58 °F 53 °F 76%  in 7 mi NNE 15.7 mph - -   Partly Cloudy
10:55 AM 57.2 °F 51.8 °F 82% 30.42 in 6.2 mi NNE 5.8 mph - N/A   Scattered Clouds
11:00 AM 58 °F 51 °F 71%  in 7 mi NNE 11.2 mph - -   Partly Cloudy
11:55 AM 57.2 °F 53.6 °F 88% 30.42 in 1.2 mi NNE 5.8 mph - N/A   Mostly Cloudy
12:00 PM 58 °F 53 °F 77%  in 1 mi NNE 11.2 mph - -   Mist
12:55 PM 57.2 °F 53.6 °F 88% 30.42 in 0.1 mi NE 5.8 mph - N/A Fog Fog
1:00 PM 56 °F 53 °F 87%  in 0 mi NE 11.2 mph - - Fog Heavy Fog
1:55 PM 55.4 °F 53.6 °F 94% 30.42 in 0.0 mi NE 6.9 mph - N/A Fog Fog
2:00 PM 56 °F 54 °F 90%  in 0 mi NE 13.4 mph - - Fog Heavy Fog
2:09 PM 55.4 °F 53.6 °F 94% 30.42 in 0.0 mi NE 8.1 mph - N/A Fog , Thunderstorm Unknown
2:55 PM 55.4 °F 53.6 °F 94% 30.42 in 0.0 mi NE 9.2 mph - N/A Fog , Rain , Thunderstorm Light Thunderstorms and Rain
3:00 PM 55 °F 54 °F 94%  in 0 mi NE 17.9 mph - - Rain , Thunderstorm Thunderstorms and Rain
3:55 PM 55.4 °F 53.6 °F 94% 30.42 in 0.0 mi NNE 8.1 mph - N/A Fog Fog
4:00 PM 55 °F 53 °F 91%  in 0 mi NNE 15.7 mph - - Fog Heavy Fog
4:55 PM 55.4 °F 51.8 °F 88% 30.42 in 6.2 mi NNE 5.8 mph - N/A   Scattered Clouds
5:55 PM 55.4 °F 51.8 °F 88% 30.42 in 6.2 mi NNE 5.8 mph - N/A   Scattered Clouds
6:00 PM 55 °F 52 °F 84%  in 6 mi NNE 5.8 mph - -   Scattered Clouds
6:55 PM 55.4 °F 51.8 °F 88% 30.39 in 6.2 mi NNE 6.9 mph - N/A   Scattered Clouds
7:55 PM 57.2 °F 53.6 °F 88% 30.39 in 0.0 mi NNE 5.8 mph - N/A Fog Fog
8:00 PM 56 °F 54 °F 89%  in 0 mi NNE 5.8 mph - - Fog Heavy Fog
8:55 PM 55.4 °F 48.2 °F 77% 30.39 in 6.2 mi SW 5.8 mph - N/A   Scattered Clouds
9:55 PM 55.4 °F 48.2 °F 77% 30.39 in - WSW 5.8 mph - N/A   Clear
10:55 PM 55.4 °F 48.2 °F 77% 30.39 in - Calm Calm - N/A   Clear
11:55 PM 55.4 °F 46.4 °F 72% 30.39 in - Calm Calm - N/A   Clear